TimeCST,TemperatureF,Dew PointF,Humidity,Sea Level PressureIn,VisibilityMPH,Wind Direction,Wind SpeedMPH,Gust SpeedMPH,PrecipitationIn,Events,Conditions,WindDirDegrees,DateUTC
12:15 AM,56.8,22.3,26,30.30,7.0,Calm,Calm,-,N/A,,Clear,0,2013-03-01 06:15:00
12:35 AM,56.5,21.7,26,30.29,10.0,Calm,Calm,-,N/A,,Clear,0,2013-03-01 06:35:00
12:55 AM,54.7,24.3,31,30.29,7.0,Calm,Calm,-,N/A,,Clear,0,2013-03-01 06:55:00
1:15 AM,54.7,24.8,32,30.29,7.0,Calm,Calm,-,N/A,,Clear,0,2013-03-01 07:15:00
1:35 AM,54.9,25.0,32,30.28,7.0,Calm,Calm,-,N/A,,Clear,0,2013-03-01 07:35:00
2:15 AM,54.0,26.8,35,30.27,7.0,SSW,3.5,-,N/A,,Clear,200,2013-03-01 08:15:00
2:35 AM,53.8,31.1,42,30.26,7.0,Calm,Calm,-,N/A,,Clear,0,2013-03-01 08:35:00
2:55 AM,54.5,30.9,41,30.25,7.0,South,3.5,-,N/A,,Clear,190,2013-03-01 08:55:00
3:15 AM,54.5,30.9,41,30.25,7.0,Calm,Calm,-,N/A,,Clear,0,2013-03-01 09:15:00
3:55 AM,52.9,32.0,45,30.24,7.0,Calm,Calm,-,N/A,,Clear,0,2013-03-01 09:55:00
4:15 AM,53.2,32.0,44,30.24,7.0,Calm,Calm,-,N/A,,Clear,0,2013-03-01 10:15:00
4:35 AM,53.6,31.6,43,30.24,7.0,Calm,Calm,-,N/A,,Clear,0,2013-03-01 10:35:00
4:55 AM,53.4,32.2,44,30.25,7.0,Calm,Calm,-,N/A,,Clear,0,2013-03-01 10:55:00
6:55 AM,52.0,32.0,47,30.28,7.0,West,4.6,-,N/A,,Clear,270,2013-03-01 12:55:00
7:15 AM,52.3,32.0,46,30.28,5.0,West,5.8,-,N/A,,Haze,260,2013-03-01 13:15:00
7:35 AM,52.7,31.6,45,30.29,5.0,West,5.8,-,N/A,,Haze,260,2013-03-01 13:35:00
7:55 AM,53.6,31.1,42,30.29,5.0,West,6.9,-,N/A,,Haze,260,2013-03-01 13:55:00
8:35 AM,57.2,30.7,37,30.31,5.0,West,9.2,-,0.15,,Haze,260,2013-03-01 14:35:00
8:55 AM,60.1,29.8,32,30.32,5.0,West,10.4,-,0.15,,Haze,260,2013-03-01 14:55:00
9:15 AM,62.6,29.1,28,30.32,7.0,WSW,8.1,-,N/A,,Clear,250,2013-03-01 15:15:00
9:35 AM,63.5,25.7,24,30.32,5.0,WSW,6.9,-,N/A,,Haze,250,2013-03-01 15:35:00
9:55 AM,64.2,25.9,23,30.32,7.0,SW,6.9,-,N/A,,Clear,230,2013-03-01 15:55:00
10:15 AM,65.5,25.2,22,30.31,7.0,SW,4.6,-,N/A,,Clear,220,2013-03-01 16:15:00
10:35 AM,66.4,24.1,20,30.31,5.0,West,4.6,-,N/A,,Haze,260,2013-03-01 16:35:00
10:55 AM,67.6,21.0,17,30.31,5.0,SW,4.6,-,N/A,,Haze,220,2013-03-01 16:55:00
11:15 AM,67.6,19.6,16,30.30,7.0,Calm,Calm,-,N/A,,Clear,0,2013-03-01 17:15:00
11:35 AM,69.3,19.8,15,30.29,7.0,SSW,3.5,-,N/A,,Clear,200,2013-03-01 17:35:00
11:55 AM,70.0,19.0,14,30.28,7.0,SW,4.6,-,N/A,,Clear,230,2013-03-01 17:55:00
12:15 PM,70.9,18.7,14,30.27,7.0,Calm,Calm,-,N/A,,Clear,0,2013-03-01 18:15:00
12:35 PM,72.1,18.1,13,30.26,7.0,WNW,8.1,-,N/A,,Clear,290,2013-03-01 18:35:00
12:55 PM,72.1,15.6,12,30.24,7.0,SW,3.5,-,N/A,,Clear,230,2013-03-01 18:55:00
1:15 PM,72.1,13.6,11,30.23,7.0,SSW,3.5,-,N/A,,Clear,210,2013-03-01 19:15:00
1:35 PM,74.1,15.6,11,30.22,7.0,WSW,12.7,16.1,N/A,,Clear,240,2013-03-01 19:35:00
1:55 PM,74.7,14.0,10,30.20,7.0,SSW,9.2,-,N/A,,Clear,200,2013-03-01 19:55:00
2:15 PM,73.9,13.3,10,30.20,7.0,WSW,10.4,-,N/A,,Clear,240,2013-03-01 20:15:00
2:35 PM,75.0,13.8,10,30.18,7.0,NNE,4.6,-,N/A,,Clear,20,2013-03-01 20:35:00
2:55 PM,75.4,13.1,9,30.18,7.0,West,10.4,-,N/A,,Clear,270,2013-03-01 20:55:00
3:15 PM,75.4,12.4,9,30.17,7.0,SW,3.5,-,N/A,,Clear,220,2013-03-01 21:15:00
3:35 PM,75.4,11.7,9,30.16,7.0,SSW,6.9,-,N/A,,Clear,210,2013-03-01 21:35:00
3:55 PM,75.0,10.2,8,30.15,7.0,SE,4.6,-,N/A,,Clear,140,2013-03-01 21:55:00
4:15 PM,76.5,8.1,7,30.15,7.0,NW,5.8,-,N/A,,Clear,320,2013-03-01 22:15:00
4:35 PM,75.9,8.2,7,30.15,7.0,WNW,4.6,-,N/A,,Clear,290,2013-03-01 22:35:00
4:55 PM,76.5,8.1,7,30.15,7.0,WSW,9.2,-,N/A,,Clear,250,2013-03-01 22:55:00
5:15 PM,75.4,7.3,7,30.15,7.0,West,9.2,-,N/A,,Clear,270,2013-03-01 23:15:00
6:15 PM,73.6,7.9,8,30.16,7.0,West,6.9,-,N/A,,Clear,270,2013-03-02 00:15:00
6:35 PM,72.5,7.5,8,30.16,5.0,SSW,3.5,-,N/A,,Haze,210,2013-03-02 00:35:00
6:55 PM,70.2,8.6,9,30.17,7.0,SSW,4.6,-,N/A,,Clear,210,2013-03-02 00:55:00
7:15 PM,69.3,10.0,10,30.17,7.0,SSW,4.6,-,N/A,,Clear,200,2013-03-02 01:15:00
7:35 PM,66.7,10.2,11,30.18,7.0,SSW,4.6,-,N/A,,Clear,210,2013-03-02 01:35:00
7:55 PM,65.5,10.0,11,30.18,7.0,SSW,4.6,-,N/A,,Clear,200,2013-03-02 01:55:00
8:15 PM,64.6,10.0,12,30.18,7.0,SSW,5.8,-,N/A,,Clear,200,2013-03-02 02:15:00
8:35 PM,63.5,11.1,13,30.18,7.0,South,5.8,-,N/A,,Clear,190,2013-03-02 02:35:00
8:55 PM,59.0,26.1,28,30.20,10.0,SE,5.8,-,N/A,,Clear,130,2013-03-02 02:55:00
9:15 PM,59.2,35.2,41,30.20,7.0,SSE,8.1,-,N/A,,Clear,160,2013-03-02 03:15:00
9:35 PM,60.8,36.9,41,30.20,10.0,South,9.2,-,N/A,,Clear,170,2013-03-02 03:35:00
9:55 PM,60.3,37.6,43,30.20,7.0,South,9.2,-,N/A,,Clear,180,2013-03-02 03:55:00
10:15 PM,60.1,39.4,46,30.21,7.0,South,9.2,-,N/A,,Clear,180,2013-03-02 04:15:00
10:35 PM,59.9,40.1,48,30.21,7.0,SSW,9.2,-,N/A,,Clear,200,2013-03-02 04:35:00
10:55 PM,59.5,41.0,50,30.22,7.0,South,8.1,-,N/A,,Clear,190,2013-03-02 04:55:00
11:15 PM,59.2,41.5,52,30.22,5.0,South,6.9,-,N/A,,Haze,190,2013-03-02 05:15:00
11:35 PM,59.2,42.3,53,30.23,7.0,SSW,8.1,-,N/A,,Clear,200,2013-03-02 05:35:00
11:55 PM,58.3,42.6,56,30.25,7.0,SW,8.1,-,N/A,,Clear,220,2013-03-02 05:55:00